Location: Malvern Link
(52.1333°N, 2.3000°W)
Time: 21:23:00
(UTC+00:00)

DIWATA 2B (PO-101) - Pass Details

Date: 02 July 2022
Orbit: 583 x 599 km, 98.0° (Epoch: 07 August)

Event Time Altitude Azimuth Distance (km) Brightness Sun altitude
Exits shadow 01:47:43 11° 163° (SSE) 1,891 ? -12.0°
Maximum altitude 01:51:49 87° 72° (ENE) 608 ? -11.8°
Drops below altitude 10° 01:56:04 10° 346° (NNW) 1,953 ? -11.5°
Sets 01:58:15 0° 346° (NNW) 2,860 ? -11.4°
